| time (UTC) | temp F | wind direction | speed knots | gust knots | rain 1hr in | rain 24hr in | rain mn in | humidity % | barometer mb |
| 20260506201539 | 82 | 96 | 3.5 | 7.8 | 0.00 | 0.00 | 0.00 | 82 | 1009.2 |
| 20260506200120 | 82 | 101 | 3.5 | 7.0 | 0.00 | 0.00 | 0.00 | 83 | 1009.2 |
| 20260506194543 | 81 | 111 | 2.6 | 7.8 | 0.00 | 0.00 | 0.00 | 84 | 1009.5 |
| 20260506193055 | 81 | 97 | 4.3 | 7.8 | 0.00 | 0.00 | 0.00 | 84 | 1009.8 |
| 20260506191505 | 81 | 105 | 2.6 | 7.0 | 0.00 | 0.00 | 0.00 | 84 | 1010.0 |
| 20260506190007 | 81 | 105 | 5.2 | 8.7 | 0.00 | 0.00 | 0.00 | 83 | 1010.1 |
| 20260506184518 | 81 | 115 | 5.2 | 9.6 | 0.00 | 0.00 | 0.00 | 83 | 1010.1 |
| 20260506183023 | 81 | 119 | 4.3 | 8.7 | 0.00 | 0.00 | 0.00 | 83 | 1010.3 |
| 20260506181531 | 81 | 116 | 6.1 | 9.6 | 0.00 | 0.00 | 0.00 | 83 | 1010.3 |
| 20260506180034 | 81 | 130 | 5.2 | 8.7 | 0.00 | 0.00 | 0.00 | 82 | 1010.4 |
| 20260506174531 | 82 | 114 | 4.3 | 8.7 | 0.00 | 0.00 | 0.00 | 81 | 1010.4 |
| 20260506173032 | 82 | 126 | 4.3 | 9.6 | 0.00 | 0.00 | 0.00 | 81 | 1010.3 |
| 20260506171548 | 83 | 138 | 3.5 | 11.3 | 0.00 | 0.00 | 0.00 | 81 | 1010.1 |
| 20260506170037 | 82 | 144 | 3.5 | 8.7 | 0.00 | 0.00 | 0.00 | 82 | 1010.2 |
| 20260506164539 | 81 | 146 | 3.5 | 10.4 | 0.00 | 0.00 | 0.00 | 84 | 1010.1 |
| 20260506163048 | 80 | 140 | 5.2 | 12.2 | 0.00 | 0.00 | 0.00 | 84 | 1010.2 |
| 20260506161556 | 80 | 140 | 4.3 | 10.4 | 0.00 | 0.00 | 0.00 | 84 | 1010.1 |
| 20260506160104 | 80 | 147 | 6.1 | 11.3 | 0.00 | 0.00 | 0.00 | 85 | 1010.0 |
| 20260506154557 | 80 | 142 | 5.2 | 11.3 | 0.00 | 0.00 | 0.00 | 85 | 1009.7 |
| 20260506153058 | 79 | 161 | 6.1 | 11.3 | 0.00 | 0.00 | 0.00 | 87 | 1009.6 |
| 20260506151508 | 79 | 146 | 7.8 | 13.0 | 0.00 | 0.00 | 0.00 | 88 | 1009.6 |
| 20260506150008 | 78 | 153 | 5.2 | 10.4 | 0.00 | 0.00 | 0.00 | 88 | 1009.5 |
| 20260506144512 | 78 | 145 | 6.1 | 10.4 | 0.00 | 0.00 | 0.00 | 87 | 1009.5 |
| 20260506143020 | 79 | 146 | 6.1 | 11.3 | 0.00 | 0.00 | 0.00 | 87 | 1009.5 |
| 20260506141522 | 79 | 140 | 7.8 | 10.4 | 0.00 | 0.00 | 0.00 | 86 | 1009.6 |
| 20260506140011 | 79 | 146 | 6.1 | 13.9 | 0.00 | 0.00 | 0.00 | 86 | 1009.6 |
| 20260506134526 | 79 | 144 | 7.0 | 12.2 | 0.00 | 0.00 | 0.00 | 86 | 1009.4 |
| 20260506133018 | 79 | 144 | 6.1 | 9.6 | 0.00 | 0.00 | 0.00 | 87 | 1009.6 |
| 20260506131526 | 79 | 148 | 5.2 | 9.6 | 0.00 | 0.00 | 0.00 | 87 | 1009.6 |
| 20260506130024 | 79 | 144 | 5.2 | 10.4 | 0.00 | 0.00 | 0.00 | 87 | 1009.4 |
| 20260506124528 | 78 | 146 | 4.3 | 10.4 | 0.00 | 0.00 | 0.00 | 87 | 1009.1 |
| 20260506123028 | 78 | 143 | 3.5 | 7.8 | 0.00 | 0.00 | 0.00 | 87 | 1009.0 |
| 20260506121530 | 78 | 140 | 2.6 | 6.1 | 0.00 | 0.00 | 0.00 | 87 | 1008.9 |
| 20260506120032 | 78 | 142 | 3.5 | 7.8 | 0.00 | 0.00 | 0.00 | 87 | 1008.8 |
| 20260506114543 | 78 | 143 | 3.5 | 7.8 | 0.00 | 0.00 | 0.00 | 87 | 1008.6 |
| 20260506113039 | 78 | 142 | 2.6 | 8.7 | 0.00 | 0.00 | 0.00 | 87 | 1008.6 |
| 20260506111547 | 78 | 146 | 3.5 | 7.0 | 0.00 | 0.00 | 0.00 | 87 | 1008.6 |
| 20260506110051 | 78 | 146 | 2.6 | 4.3 | 0.00 | 0.00 | 0.00 | 87 | 1008.6 |
| 20260506104553 | 78 | 146 | 2.6 | 7.0 | 0.00 | 0.00 | 0.00 | 87 | 1008.4 |
| 20260506103105 | 78 | 148 | 1.7 | 7.0 | 0.00 | 0.00 | 0.00 | 87 | 1008.3 |
| 20260506101506 | 78 | 147 | 3.5 | 7.8 | 0.00 | 0.00 | 0.00 | 87 | 1008.3 |
| 20260506100016 | 78 | 146 | 3.5 | 8.7 | 0.00 | 0.00 | 0.00 | 87 | 1008.3 |
| 20260506094519 | 78 | 142 | 4.3 | 7.8 | 0.00 | 0.00 | 0.00 | 87 | 1008.0 |
| 20260506093021 | 78 | 148 | 5.2 | 9.6 | 0.00 | 0.00 | 0.00 | 87 | 1008.0 |
| 20260506091524 | 78 | 148 | 5.2 | 10.4 | 0.00 | 0.00 | 0.00 | 87 | 1007.9 |
| 20260506090029 | 78 | 143 | 7.0 | 11.3 | 0.00 | 0.00 | 0.00 | 86 | 1007.7 |
| 20260506084536 | 78 | 144 | 7.0 | 15.6 | 0.00 | 0.00 | 0.00 | 86 | 1007.7 |
| 20260506083037 | 78 | 132 | 7.0 | 13.9 | 0.00 | 0.00 | 0.00 | 86 | 1007.6 |
| 20260506081547 | 78 | 147 | 7.8 | 15.6 | 0.00 | 0.00 | 0.00 | 86 | 1007.5 |
| 20260506073042 | 79 | 136 | 6.1 | 13.0 | 0.00 | 0.00 | 0.00 | 84 | 1008.4 |
| 20260506071553 | 79 | 155 | 5.2 | 12.2 | 0.00 | 0.00 | 0.00 | 84 | 1008.8 |
| 20260506070123 | 79 | 154 | 7.8 | 13.0 | 0.00 | 0.00 | 0.00 | 84 | 1008.8 |
| 20260506061601 | 79 | 151 | 6.1 | 14.8 | 0.00 | 0.00 | 0.00 | 86 | 1009.1 |
| 20260506061504 | 78 | 144 | 7.0 | 14.8 | 0.00 | 0.00 | 0.00 | 86 | 1009.1 |
| 20260506044520 | 79 | 143 | 7.8 | 13.9 | 0.00 | 0.00 | 0.00 | 85 | 1009.4 |
| 20260506043020 | 79 | 148 | 7.8 | 13.0 | 0.00 | 0.00 | 0.00 | 85 | 1009.5 |
| 20260506041526 | 79 | 157 | 7.8 | 12.2 | 0.00 | 0.00 | 0.00 | 86 | 1009.3 |
| 20260506040031 | 79 | 145 | 7.0 | 13.9 | 0.00 | 0.00 | 0.00 | 85 | 1009.2 |
| 20260506034534 | 79 | 140 | 8.7 | 14.8 | 0.00 | 0.00 | 0.00 | 85 | 1009.0 |
| 20260506033035 | 79 | 148 | 8.7 | 14.8 | 0.00 | 0.00 | 0.00 | 85 | 1008.8 |
| 20260506031541 | 79 | 139 | 7.8 | 15.6 | 0.00 | 0.00 | 0.00 | 85 | 1008.9 |
| 20260506030025 | 79 | 150 | 8.7 | 14.8 | 0.00 | 0.00 | 0.00 | 85 | 1008.8 |
| 20260506024525 | 79 | 159 | 7.8 | 12.2 | 0.00 | 0.00 | 0.00 | 85 | 1008.7 |
| 20260506023015 | 79 | 143 | 8.7 | 14.8 | 0.00 | 0.00 | 0.00 | 85 | 1008.4 |
| 20260506021519 | 79 | 143 | 8.7 | 17.4 | 0.00 | 0.00 | 0.00 | 85 | 1008.1 |
| 20260506020025 | 79 | 136 | 8.7 | 16.5 | 0.00 | 0.00 | 0.00 | 85 | 1008.0 |
| 20260506014529 | 79 | 127 | 9.6 | 14.8 | 0.00 | 0.00 | 0.00 | 85 | 1007.8 |
| 20260506013039 | 79 | 144 | 10.4 | 16.5 | 0.00 | 0.00 | 0.00 | 85 | 1007.6 |
| 20260506011607 | 79 | 142 | 8.7 | 17.4 | 0.00 | 0.00 | 0.00 | 84 | 1007.5 |
| 20260506010047 | 79 | 143 | 10.4 | 16.5 | 0.00 | 0.00 | 0.00 | 84 | 1007.3 |
| 20260506004601 | 79 | 157 | 9.6 | 17.4 | 0.00 | 0.00 | 0.00 | 84 | 1007.1 |
| 20260506003057 | 79 | 185 | 10.4 | 16.5 | 0.00 | 0.00 | 0.00 | 83 | 1007.0 |
| 20260506001604 | 80 | 134 | 9.6 | 17.4 | 0.00 | 0.00 | 0.00 | 83 | 1007.2 |
| 20260506001502 | 80 | 130 | 9.6 | 18.2 | 0.00 | 0.00 | 0.00 | 83 | 1007.0 |
| 20260506000003 | 80 | 148 | 9.6 | 16.5 | 0.00 | 0.00 | 0.00 | 82 | 1006.9 |
| 20260505234515 | 80 | 135 | 11.3 | 18.2 | 0.00 | 0.00 | 0.00 | 82 | 1006.8 |
| 20260505233009 | 81 | 134 | 10.4 | 19.1 | 0.00 | 0.00 | 0.00 | 81 | 1006.8 |
| 20260505231515 | 81 | 145 | 11.3 | 18.2 | 0.00 | 0.00 | 0.00 | 80 | 1006.7 |
| 20260505230109 | 81 | 167 | 11.3 | 20.9 | 0.00 | 0.00 | 0.00 | 80 | 1006.7 |
| 20260505230003 | 81 | 152 | 10.4 | 20.9 | 0.00 | 0.00 | 0.00 | 79 | 1006.8 |
| 20260505224559 | 81 | 142 | 11.3 | 18.2 | 0.00 | 0.00 | 0.00 | 79 | 1006.8 |
| 20260505224505 | 82 | 151 | 11.3 | 18.2 | 0.00 | 0.00 | 0.00 | 79 | 1007.0 |
| 20260505223051 | 82 | 160 | 11.3 | 18.2 | 0.00 | 0.00 | 0.00 | 79 | 1006.9 |
| 20260505221601 | 82 | 157 | 7.8 | 19.1 | 0.00 | 0.00 | 0.00 | 78 | 1007.1 |
| 20260505220053 | 82 | 136 | 9.6 | 18.2 | 0.00 | 0.00 | 0.00 | 78 | 1007.3 |
| 20260505214557 | 82 | 142 | 11.3 | 16.5 | 0.00 | 0.00 | 0.00 | 77 | 1007.4 |
| 20260505213003 | 82 | 138 | 11.3 | 18.2 | 0.00 | 0.00 | 0.00 | 78 | 1007.6 |
| 20260505211505 | 83 | 134 | 9.6 | 18.2 | 0.00 | 0.00 | 0.00 | 77 | 1007.7 |
| 20260505210007 | 83 | 138 | 12.2 | 20.9 | 0.00 | 0.00 | 0.00 | 76 | 1007.9 |
| 20260505204508 | 83 | 153 | 11.3 | 19.1 | 0.00 | 0.00 | 0.00 | 76 | 1008.0 |
| 20260505203013 | 83 | 116 | 10.4 | 18.2 | 0.00 | 0.00 | 0.00 | 76 | 1008.4 |